Branson, MO

5:00 PM CDT on October 16, 2017 (GMT -0500)
Branson

Weather History for KBBG - July, 2013

Change the Weather History Date:

Monday, July 22, 2013

  Actual Average (KHRO) Record (KHRO)
Temperature  
Mean Temperature 75 °F -  
Max Temperature 84 °F 88 °F 106 °F (1974)
Min Temperature 66 °F 66 °F 45 °F (1947)
Cooling Degree Days 10    
Growing Degree Days 25 (Base 50)    
Moisture  
Dew Point 69 °F    
Average Humidity 85    
Maximum Humidity 100    
Minimum Humidity 55    
Precipitation  
Precipitation 0.20 in - - ()
Sea Level Pressure  
Sea Level Pressure 29.92 in    
Wind  
Wind Speed 4 mph (SSW)    
Max Wind Speed 14 mph    
Max Gust Speed 23 mph    
Visibility 8 miles    
Events Rain , Thunderstorm    
Averages and records for this station are not official NWS values.
T = Trace of Precipitation, MM = Missing Value Source: NWS Daily Summary

Daily Weather History Graph

Daily Weather History Graph

Search for Another Location

Airport or City:

Trip Planner

Search our weather history database for the weather conditions in past years. The results will help you decide how hot, cold, wet, or windy it might be!

Date:

Astronomy

Jul. 22, 2013 Rise Set
Actual Time 6:11 AM CDT 8:26 PM CDT
Civil Twilight 5:42 AM CDT 8:55 PM CDT
Nautical Twilight 5:06 AM CDT 9:31 PM CDT
Astronomical Twilight 4:27 AM CDT 10:10 PM CDT
Moon 8:15 PM CDT (7/22) 6:06 AM CDT (7/22)
Length of Visible Light 15h 13m
Length of Day
14h 15m
Full, 100% of the Moon is Illuminated
Jul 22
Full
Jul 22
Full
Jul 29
Last Quarter
Aug 6
New
Aug 14
First Quarter

Hourly Weather History & Observations

Time (CDT) Temp. Heat Index Dew Point Humidity Pressure Visibility Wind Dir Wind Speed Gust Speed Precip Events Conditions
12:15 AM 73.4 °F - 73.4 °F 100% 29.90 in 5.0 mi SE 5.8 mph - N/A   Mostly Cloudy
12:35 AM 73.4 °F - 73.4 °F 100% 29.92 in 3.0 mi Calm Calm - 0.06 in Rain , Thunderstorm Light Rain
12:55 AM 71.6 °F - 71.6 °F 100% 29.90 in 3.0 mi Calm Calm - 0.06 in   Mostly Cloudy
1:15 AM 71.6 °F - 71.6 °F 100% 29.91 in 4.0 mi Calm Calm - N/A   Mostly Cloudy
1:35 AM 71.6 °F - 71.6 °F 100% 29.90 in 3.0 mi Calm Calm - N/A   Mostly Cloudy
1:55 AM 71.6 °F - 71.6 °F 100% 29.90 in 3.0 mi SW 3.5 mph - N/A   Scattered Clouds
2:15 AM 73.4 °F - 73.4 °F 100% 29.91 in 8.0 mi Calm Calm - N/A   Scattered Clouds
2:35 AM 73.4 °F - 73.4 °F 100% 29.90 in 7.0 mi Calm Calm - N/A   Mostly Cloudy
2:55 AM 73.4 °F - 71.6 °F 94% 29.91 in 6.0 mi Calm Calm - N/A   Mostly Cloudy
3:15 AM 73.4 °F - 71.6 °F 94% 29.90 in 10.0 mi WSW 4.6 mph - N/A   Scattered Clouds
3:35 AM 71.6 °F - 68.0 °F 88% 29.90 in 10.0 mi Calm Calm - N/A   Scattered Clouds
3:55 AM 71.6 °F - 68.0 °F 88% 29.89 in 10.0 mi Calm Calm - N/A Thunderstorm Partly Cloudy
4:15 AM 69.8 °F - 66.2 °F 88% 29.89 in 10.0 mi Calm Calm - N/A Thunderstorm Mostly Cloudy
4:35 AM 68.0 °F - 68.0 °F 100% 29.89 in 10.0 mi Calm Calm - N/A Thunderstorm Scattered Clouds
4:55 AM 68.0 °F - 66.2 °F 94% 29.92 in 7.0 mi NW 6.9 mph - N/A Thunderstorm Mostly Cloudy
5:15 AM 68.0 °F - 66.2 °F 94% 29.94 in 8.0 mi NNW 10.4 mph - N/A Rain , Thunderstorm Light Thunderstorms and Rain
5:35 AM 68.0 °F - 64.4 °F 88% 29.95 in 7.0 mi West 10.4 mph 18.4 mph 0.01 in Rain , Thunderstorm Light Thunderstorms and Rain
5:55 AM 66.2 °F - 62.6 °F 88% 29.95 in 3.0 mi SW 6.9 mph - 0.13 in Rain , Thunderstorm Thunderstorms and Rain
6:15 AM 68.0 °F - 60.8 °F 78% 29.94 in 8.0 mi NNW 4.6 mph - N/A Rain , Thunderstorm Light Rain
6:35 AM 66.2 °F - 62.6 °F 88% 29.95 in 10.0 mi SW 6.9 mph 23.0 mph 0.01 in Rain , Thunderstorm Light Rain
6:53 AM 66.2 °F - 64.4 °F 94% 29.93 in 10.0 mi ESE 8.1 mph - N/A Rain , Thunderstorm Light Thunderstorms and Rain
7:50 AM 66.2 °F - 64.4 °F 94% 29.97 in 10.0 mi South 13.8 mph 20.7 mph N/A Rain , Thunderstorm Light Thunderstorms and Rain
8:58 AM 66.2 °F - 64.4 °F 94% 29.95 in 10.0 mi SSW 11.5 mph 18.4 mph N/A   Mostly Cloudy
9:48 AM 71.6 °F - 64.4 °F 78% 29.94 in 10.0 mi SSW 9.2 mph - N/A Thunderstorm Thunderstorm
11:54 AM 71.6 °F - 66.2 °F 83% 29.97 in 7.0 mi Calm Calm - N/A Rain , Thunderstorm Light Thunderstorms and Rain
11:56 AM 71.6 °F - 66.2 °F 83% 29.95 in 10.0 mi South 5.8 mph - N/A   Mostly Cloudy
12:51 PM 73.4 °F - 68.0 °F 83% 29.96 in 10.0 mi SSW 6.9 mph - N/A   Mostly Cloudy
1:48 PM 77.0 °F - 66.2 °F 69% 29.94 in 10.0 mi SW 5.8 mph - N/A   Mostly Cloudy
2:45 PM 80.6 °F 82.7 °F 66.2 °F 61% 29.95 in 10.0 mi West 6.9 mph - N/A   Mostly Cloudy
3:45 PM 84.2 °F 87.3 °F 68.0 °F 58% 29.95 in 10.0 mi South 3.5 mph - N/A   Mostly Cloudy
4:47 PM 84.2 °F 86.6 °F 66.2 °F 55% 29.92 in 10.0 mi WSW 5.8 mph - N/A   Mostly Cloudy
5:45 PM 84.2 °F 87.3 °F 68.0 °F 58% 29.90 in 10.0 mi Calm Calm - N/A   Mostly Cloudy
6:45 PM 82.4 °F 87.2 °F 71.6 °F 70% 29.90 in 10.0 mi Calm Calm - N/A   Mostly Cloudy
7:45 PM 80.6 °F 84.6 °F 71.6 °F 74% 29.90 in 10.0 mi Calm Calm - N/A   Mostly Cloudy
8:45 PM 80.6 °F 84.6 °F 71.6 °F 74% 29.90 in 10.0 mi SSE 3.5 mph - N/A   Scattered Clouds
8:55 PM 78.8 °F - 71.6 °F 78% 29.89 in 10.0 mi South 3.5 mph - N/A   Clear
9:15 PM 77.0 °F - 71.6 °F 83% 29.90 in 10.0 mi South 3.5 mph - N/A   Clear
9:35 PM 77.0 °F - 71.6 °F 83% 29.90 in 10.0 mi South 4.6 mph - N/A   Clear
9:55 PM 77.0 °F - 71.6 °F 83% 29.90 in 10.0 mi South 3.5 mph - N/A   Clear
10:15 PM 77.0 °F - 71.6 °F 83% 29.90 in 10.0 mi South 4.6 mph - N/A   Clear
10:35 PM 77.0 °F - 71.6 °F 83% 29.90 in 10.0 mi South 3.5 mph - N/A   Clear
10:55 PM 77.0 °F - 71.6 °F 83% 29.91 in 10.0 mi South 3.5 mph - N/A   Clear
11:15 PM 77.0 °F - 71.6 °F 83% 29.92 in 10.0 mi South 3.5 mph - N/A   Clear
11:35 PM 77.0 °F - 71.6 °F 83% 29.92 in 10.0 mi South 4.6 mph - N/A   Clear
11:55 PM 77.0 °F - 71.6 °F 83% 29.93 in 10.0 mi South 3.5 mph - N/A   Clear